Date String (YYYY-MM-DD hh:mm:ss) UTC,Instrument flags,Ambient pressure (hPa),Sample flow (lpm),Bypass flow (lpm),Sample temperature (°C),Ambient temperature (°C),ASC tube jacket temperature (°C),LED temperature (°C),Box temperature (°C),Sample RH (%),Span deviation,Mass concentration (μg/m³),Mass concentration (μg/m³),Mass concentration (μg/m³)
DateTimeUTC,F1_M11,P_M11,Q1_M11,Q2_M11,T1_M11,T2_M11,T3_M11,T4_M11,T5_M11,U1_M11,ZSPAN_M11,X0_M11,X2_M11,X1_M11
2022-03-03 11:00:00,,0827.4,5.01,0.00,27.0,26.2,00.0,36.1,28.8,09.7,0000.0,0002.55,0001.75,0001.43
2022-03-03 11:01:00,,0827.4,5.00,0.00,27.0,26.2,00.0,36.1,28.8,09.7,0000.0,0002.56,0001.75,0001.42
2022-03-03 11:02:00,,0827.4,5.00,0.00,27.0,26.2,00.0,36.1,28.8,09.7,0000.0,0002.78,0001.82,0001.40
2022-03-03 11:03:00,,0827.4,5.00,0.00,27.0,26.2,00.0,36.1,28.8,09.8,0000.0,0002.69,0001.78,0001.36
2022-03-03 11:04:00,,0827.4,4.99,0.00,27.0,26.2,00.0,36.1,28.8,09.7,0000.0,0002.58,0001.73,0001.33
2022-03-03 11:05:00,,0827.4,4.99,0.00,27.0,26.2,00.0,36.1,28.8,09.7,0000.0,0002.50,0001.69,0001.31
2022-03-03 11:06:00,,0827.4,5.00,0.00,27.0,26.2,00.0,36.0,28.7,09.7,0000.0,0002.60,0001.67,0001.30
2022-03-03 11:07:00,,0827.4,5.00,0.00,27.0,26.2,00.0,36.0,28.7,09.8,0000.0,0003.03,0001.67,0001.27
2022-03-03 11:08:00,,0827.4,5.01,0.00,27.0,26.2,00.0,36.0,28.7,09.8,0000.0,0003.30,0001.65,0001.26
2022-03-03 11:09:00,,0827.4,5.00,0.00,27.0,26.2,00.0,36.0,28.7,09.8,0000.0,0004.28,0001.66,0001.27
2022-03-03 11:10:00,,0827.5,5.01,0.00,27.0,26.2,00.0,36.0,28.7,09.7,0000.0,0005.42,0001.67,0001.27
2022-03-03 11:11:00,,0827.5,5.00,0.00,27.0,26.1,00.0,36.0,28.8,09.7,0000.0,0005.43,0001.65,0001.24
2022-03-03 11:12:00,,0827.4,4.98,0.00,27.0,26.1,00.0,36.0,28.8,09.6,0000.0,0005.43,0001.64,0001.23
2022-03-03 11:13:00,,0827.4,5.00,0.00,27.0,26.1,00.0,36.0,28.7,09.6,0000.0,0005.24,0001.56,0001.20
2022-03-03 11:14:00,,0827.4,5.00,0.00,26.9,26.2,00.0,36.0,28.7,09.6,0000.0,0005.11,0001.51,0001.19
2022-03-03 11:15:00,,0827.4,5.00,0.00,27.0,26.1,00.0,36.0,28.7,09.6,0000.0,0005.29,0001.52,0001.20
2022-03-03 11:16:00,,0827.3,5.00,0.00,27.0,26.2,00.0,36.0,28.7,09.6,0000.0,0005.49,0001.57,0001.21
2022-03-03 11:17:00,,0827.5,5.01,0.00,26.9,26.2,00.0,36.0,28.7,09.6,0000.0,0005.50,0001.59,0001.22
2022-03-03 11:18:00,,0827.5,5.00,0.00,27.0,26.2,00.0,36.0,28.7,09.7,0000.0,0005.05,0001.63,0001.24
2022-03-03 11:19:00,,0827.5,4.98,0.00,27.0,26.2,00.0,36.0,28.7,09.7,0000.0,0005.05,0001.69,0001.26
2022-03-03 11:20:00,,0827.5,5.01,0.00,26.9,26.1,00.0,36.0,28.7,09.6,0000.0,0004.02,0001.64,0001.24
2022-03-03 11:21:00,,0827.5,5.00,0.00,26.9,26.1,00.0,36.0,28.7,09.9,0000.0,0002.76,0001.63,0001.21
2022-03-03 11:22:00,,0827.5,4.99,0.00,26.9,26.1,00.0,35.9,28.7,09.9,0000.0,0002.64,0001.57,0001.17
2022-03-03 11:23:00,,0827.5,5.00,0.00,26.9,26.1,00.0,36.0,28.6,09.7,0000.0,0002.66,0001.56,0001.15
2022-03-03 11:24:00,,0827.5,5.00,0.00,26.9,26.1,00.0,35.9,28.7,09.5,0000.0,0002.77,0001.56,0001.14
2022-03-03 11:25:00,,0827.5,4.98,0.00,26.9,26.1,00.0,35.9,28.7,09.6,0000.0,0003.14,0001.58,0001.14
2022-03-03 11:26:00,,0827.6,5.00,0.00,26.9,26.1,00.0,35.9,28.7,09.5,0000.0,0003.71,0001.56,0001.12
2022-03-03 11:27:00,,0827.6,5.00,0.00,26.9,26.1,00.0,35.9,28.7,09.5,0000.0,0003.57,0001.53,0001.10
2022-03-03 11:28:00,,0827.5,5.01,0.00,26.9,26.1,00.0,35.9,28.6,09.5,0000.0,0003.49,0001.48,0001.08
2022-03-03 11:29:00,,0827.5,5.00,0.00,26.9,26.1,00.0,35.9,28.6,09.4,0000.0,0004.07,0001.49,0001.06
2022-03-03 11:30:00,,0827.6,4.98,0.00,26.9,26.1,00.0,35.9,28.7,09.4,0000.0,0004.25,0001.44,0001.03
2022-03-03 11:31:00,,0827.6,5.01,0.00,26.9,26.1,00.0,35.9,28.7,09.4,0000.0,0004.36,0001.47,0001.02
2022-03-03 11:32:00,,0827.6,5.01,0.00,26.9,26.1,00.0,35.9,28.7,09.4,0000.0,0004.35,0001.49,0001.03
2022-03-03 11:33:00,,0827.6,4.99,0.00,26.9,26.1,00.0,35.9,28.7,09.5,0000.0,0004.33,0001.47,0001.04
2022-03-03 11:34:00,,0827.6,4.99,0.00,26.8,26.1,00.0,35.9,28.6,09.7,0000.0,0004.25,0001.42,0001.01
2022-03-03 11:35:00,,0827.7,5.00,0.00,26.8,26.1,00.0,35.9,28.6,09.4,0000.0,0004.05,0001.36,0000.99
2022-03-03 11:36:00,,0827.6,5.01,0.00,26.8,26.0,00.0,35.9,28.6,09.3,0000.0,0003.66,0001.32,0000.97
2022-03-03 11:37:00,,0827.6,5.00,0.00,26.8,26.0,00.0,35.9,28.6,09.3,0000.0,0002.97,0001.32,0000.96
2022-03-03 11:38:00,,0827.6,4.99,0.00,26.8,26.0,00.0,35.8,28.6,09.2,0000.0,0003.09,0001.31,0000.95
2022-03-03 11:39:00,,0827.6,5.01,0.00,26.8,26.0,00.0,35.8,28.6,09.3,0000.0,0003.02,0001.32,0000.95
2022-03-03 11:40:00,,0827.7,5.00,0.00,26.8,26.0,00.0,35.8,28.6,09.3,0000.0,0002.45,0001.28,0000.97
2022-03-03 11:41:00,,0827.6,5.00,0.00,26.8,26.0,00.0,35.8,28.6,09.3,0000.0,0002.89,0001.29,0000.98
2022-03-03 11:42:00,,0827.7,4.99,0.00,26.8,26.0,00.0,35.8,28.6,09.4,0000.0,0003.50,0001.24,0000.98
2022-03-03 11:43:00,,0827.7,5.00,0.00,26.8,26.0,00.0,35.8,28.6,09.5,0000.0,0003.92,0001.19,0000.97
2022-03-03 11:44:00,,0827.7,4.98,0.00,26.8,26.0,00.0,35.8,28.6,09.5,0000.0,0003.95,0001.20,0000.96
2022-03-03 11:45:00,,0827.7,5.00,0.00,26.8,26.0,00.0,35.8,28.6,09.4,0000.0,0004.07,0001.26,0000.98
2022-03-03 11:46:00,,0827.7,5.01,0.00,26.8,26.0,00.0,35.8,28.5,09.4,0000.0,0004.11,0001.28,0000.99
2022-03-03 11:47:00,,0827.7,5.01,0.00,26.8,26.0,00.0,35.8,28.5,09.4,0000.0,0004.14,0001.29,0001.01
2022-03-03 11:48:00,,0827.7,4.99,0.00,26.7,26.0,00.0,35.8,28.5,09.4,0000.0,0004.17,0001.28,0001.02
2022-03-03 11:49:00,,0827.7,5.00,0.00,26.7,26.0,00.0,35.8,28.5,09.5,0000.0,0004.00,0001.26,0001.02
2022-03-03 11:50:00,,0827.7,5.01,0.00,26.7,25.9,00.0,35.8,28.5,09.5,0000.0,0004.02,0001.26,0000.99
2022-03-03 11:51:00,,0827.7,5.00,0.00,26.7,25.9,00.0,35.8,28.5,09.2,0000.0,0003.97,0001.25,0000.96
2022-03-03 11:52:00,,0827.7,5.01,0.00,26.7,25.9,00.0,35.8,28.5,09.2,0000.0,0003.21,0001.19,0000.93
2022-03-03 11:53:00,,0827.7,5.00,0.00,26.7,25.9,00.0,35.8,28.4,09.1,0000.0,0002.86,0001.18,0000.92
2022-03-03 11:54:00,,0827.7,4.99,0.00,26.7,25.9,00.0,35.8,28.5,09.1,0000.0,0003.73,0001.17,0000.90
2022-03-03 11:55:00,,0827.7,5.00,0.00,26.7,25.9,00.0,35.7,28.4,09.1,0000.0,0003.84,0001.16,0000.90
2022-03-03 11:56:00,,0827.7,5.00,0.00,26.7,25.9,00.0,35.7,28.4,09.1,0000.0,0003.65,0001.08,0000.88
2022-03-03 11:57:00,,0827.7,5.01,0.00,26.7,25.9,00.0,35.7,28.4,09.1,0000.0,0004.67,0001.08,0000.87
2022-03-03 11:58:00,,0827.7,5.00,0.00,26.7,25.9,00.0,35.7,28.4,09.2,0000.0,0005.35,0001.06,0000.86
2022-03-03 11:59:00,,0827.7,5.00,0.00,26.6,25.9,00.0,35.7,28.4,09.3,0000.0,0005.26,0001.08,0000.85
